Santa Fe, NM

10:14 AM MST on December 10, 2016 (GMT -0700)
Santa Fe Municipal

Weather History for KSAF - September, 2012

Change the Weather History Date:

Tuesday, September 4, 2012

  Actual Average Record
Temperature  
Mean Temperature 74 °F -  
Max Temperature 88 °F 88 °F 90 °F (1978)
Min Temperature 60 °F 48 °F 43 °F (1980)
Cooling Degree Days 8    
Growing Degree Days 24 (Base 50)    
Moisture  
Dew Point 41 °F    
Average Humidity 35    
Maximum Humidity 64    
Minimum Humidity 15    
Precipitation  
Precipitation 0.00 in - - ()
Sea Level Pressure  
Sea Level Pressure 29.88 in    
Wind  
Wind Speed 7 mph (NNE)    
Max Wind Speed 14 mph    
Max Gust Speed -    
Visibility 10 miles    
Events      
Averages and records for this station are not official NWS values.
T = Trace of Precipitation, MM = Missing Value Source: NWS Daily Summary

Daily Weather History Graph

Daily Weather History Graph

Search for Another Location

Airport or City:

Trip Planner

Search our weather history database for the weather conditions in past years. The results will help you decide how hot, cold, wet, or windy it might be!

Date:

Astronomy

Sep. 04, 2012 Rise Set
Actual Time 6:39 AM MDT 7:26 PM MDT
Civil Twilight 6:13 AM MDT 7:52 PM MDT
Nautical Twilight 5:42 AM MDT 8:22 PM MDT
Astronomical Twilight 5:11 AM MDT 8:54 PM MDT
Moon 9:32 PM MDT (9/4) 10:37 AM MDT (9/4)
Length of Visible Light 13h 39m
Length of Day
12h 47m
Waning Gibbous, 83% of the Moon is Illuminated
Sep 4
Waning Gibbous
Sep 8
Last Quarter
Sep 15
New
Sep 22
First Quarter
Sep 29
Full

Hourly Weather History & Observations

Time (MDT) Temp. Dew Point Humidity Pressure Visibility Wind Dir Wind Speed Gust Speed Precip Events Conditions
12:53 AM 68.0 °F 50.0 °F 52% 29.89 in 10.0 mi NE 8.1 mph - N/A   Partly Cloudy
1:53 AM 66.9 °F 48.9 °F 52% 29.88 in 10.0 mi NNE 3.5 mph - N/A   Scattered Clouds
2:53 AM 64.0 °F 48.9 °F 58% 29.88 in 10.0 mi NNE 6.9 mph - N/A   Clear
3:53 AM 64.0 °F 50.0 °F 60% 29.89 in 10.0 mi NNE 9.2 mph - N/A   Clear
4:53 AM 60.1 °F 48.0 °F 64% 29.92 in 10.0 mi North 8.1 mph - N/A   Clear
5:53 AM 61.0 °F 45.0 °F 56% 29.93 in 10.0 mi North 8.1 mph - N/A   Clear
6:53 AM 62.1 °F 45.0 °F 53% 29.96 in 10.0 mi NNE 5.8 mph - N/A   Clear
7:53 AM 63.0 °F 45.0 °F 52% 29.98 in 10.0 mi North 8.1 mph - N/A   Clear
8:53 AM 71.1 °F 44.1 °F 38% 29.96 in 10.0 mi North 10.4 mph - N/A   Clear
9:53 AM 75.9 °F 43.0 °F 31% 29.96 in 10.0 mi North 11.5 mph - N/A   Clear
10:53 AM 81.0 °F 39.0 °F 22% 29.91 in 10.0 mi North 12.7 mph - N/A   Clear
11:53 AM 82.9 °F 34.0 °F 17% 29.91 in 10.0 mi North 13.8 mph - N/A   Clear
12:53 PM 86.0 °F 33.1 °F 15% 29.89 in 10.0 mi North 10.4 mph - N/A   Clear
2:53 PM 84.9 °F 34.0 °F 16% 29.87 in 10.0 mi North 8.1 mph - N/A   Scattered Clouds
3:53 PM 87.1 °F 33.1 °F 15% 29.84 in 10.0 mi SSW 5.8 mph - N/A   Partly Cloudy
4:53 PM 86.0 °F 34.0 °F 16% 29.83 in 10.0 mi Calm Calm - N/A   Clear
5:53 PM 84.9 °F 34.0 °F 16% 29.82 in 10.0 mi Calm Calm - N/A   Clear
6:53 PM 82.9 °F 37.0 °F 19% 29.81 in 10.0 mi Calm Calm - N/A   Clear
7:53 PM 80.1 °F 39.0 °F 23% 29.83 in 10.0 mi ESE 3.5 mph - N/A   Clear
8:53 PM 78.1 °F 37.9 °F 24% 29.82 in 10.0 mi Calm Calm - N/A   Clear
9:53 PM 70.0 °F 39.9 °F 33% 29.83 in 10.0 mi North 4.6 mph - N/A   Clear
10:53 PM 70.0 °F 41.0 °F 35% 29.83 in 10.0 mi ENE 6.9 mph - N/A   Clear
11:53 PM 70.0 °F 42.1 °F 36% 29.82 in 10.0 mi East 9.2 mph - N/A   Clear